Overview Statistics Trail Chart Weather Telemetry Raw packets
 

This is the latest recevied weather packets stored in our database for station/object W4UWO. If no packets are shown the sender has not sent any weather packets the latest 10 day(s).

<< 32 33 34 35 36 37 38 >>
Time Temp. Humidity Pressure Rain* Wind** Luminosity Snow
1788402309 28.89° C 73% 1017.8 hPa 0 mm - 0 W/m² -
1788402008 28.33° C 74% 1017.9 hPa 0 mm - 0 W/m² -
1788401703 28.89° C 72% 1017.9 hPa 0 mm - 0 W/m² -
1788401398 28.89° C 70% 1017.9 hPa 0 mm - 0 W/m² -
1788401094 28.89° C 70% 1017.9 hPa 0 mm - 0 W/m² -
1788400794 29.44° C 69% 1017.8 hPa 0 mm - 0 W/m² -
1788400490 30° C 68% 1017.9 hPa 0 mm - 0 W/m² -
1788400184 30° C 68% 1017.8 hPa 0 mm - 0 W/m² -
1788399884 30° C 67% 1017.5 hPa 0 mm - 0 W/m² -
1788399579 30° C 67% 1017.6 hPa 0 mm - 0 W/m² -
1788399278 30° C 66% 1017.6 hPa 0 mm - 0 W/m² -
1788398978 30° C 66% 1017.6 hPa 0 mm - 0 W/m² -
1788398677 30.56° C 65% 1017.6 hPa 0 mm - 0 W/m² -
1788398376 30.56° C 63% 1017.5 hPa 0 mm - 0 W/m² -
1788398071 30.56° C 64% 1017.5 hPa 0 mm - 0 W/m² -
1788397766 30.56° C 63% 1017.6 hPa 0 mm - 0 W/m² -
1788397461 30.56° C 63% 1017.3 hPa 0 mm - 0 W/m² -
1788397159 30.56° C 62% 1017.4 hPa 0 mm - 0 W/m² -
1788396855 31.11° C 61% 1017.3 hPa 0 mm - 0 W/m² -
1788396552 31.11° C 60% 1017.3 hPa 0 mm - 0 W/m² -
1788396252 31.67° C 58% 1017.5 hPa 0 mm - 0 W/m² -
1788395947 32.22° C 57% 1017.3 hPa 0 mm - 0 W/m² -
1788395642 32.22° C 55% 1017.4 hPa 0 mm - 0 W/m² -
1788395341 32.78° C 55% 1017.5 hPa 0 mm - 0 W/m² -
1788395037 32.78° C 53% 1017.6 hPa 0 mm - 1 W/m² -

* Rain latest hour (hover to see other rain measurements)
** Current wind speed in m/s (hover to see current wind gust speed)